Location: Roanoke
(37.2710°N, 79.9420°W)
Time: 08:49:59
(UTC-05:00)

S-56A Canister/Altair - Pass Details

Date: 23 November 2019
Orbit: 633 x 2499 km, 38.9° (Epoch: 06 December)

Event Time Altitude Azimuth Distance (km) Brightness Sun altitude
Rises 20:16:11 0° 285° (WNW) 4,557 12.4 -37.7°
Reaches altitude 10° 20:19:44 10° 284° (WNW) 3,274 11.4 -38.4°
Enters shadow 20:24:50 40° 273° (W) 1,485 9.2 -39.5°
Maximum altitude 20:27:19 70° 202° (SSW) 986 - -40.0°
Drops below altitude 10° 20:32:31 10° 119° (ESE) 2,272 - -41.0°
Sets 20:34:36 0° 117° (ESE) 3,079 - -41.4°
